owner,sensor,date,latitude,longitude,vertical_datum,direction_of_sea_water_velocity,sea_water_speed,upward_sea_water_velocity,qcFlag 
TABS,ioos:station:wmo:42050:1,2010-04-01T00:00:00Z,28.8425,-94.2433,2.0,277.9000941,4.220047393,-99999.0,'11133222,11111222,99999999' 
TABS,ioos:station:wmo:42050:1,2010-04-01T00:30:00Z,28.8425,-94.2433,2.0,281.1446799,6.105120801,-99999.0,'11133222,11111222,99999999' 
TABS,ioos:station:wmo:42050:1,2010-04-01T01:00:00Z,28.8425,-94.2433,2.0,275.3383047,7.954495584,-99999.0,'11133222,11111222,99999999' 
TABS,ioos:station:wmo:42050:1,2010-04-01T01:30:00Z,28.8425,-94.2433,2.0,287.4046849,10.19683284,-99999.0,'11111222,11111222,99999999' 
TABS,ioos:station:wmo:42050:1,2010-04-01T02:00:00Z,28.8425,-94.2433,2.0,301.6877827,11.27007098,-99999.0,'11111222,11111222,99999999' 
TABS,ioos:station:wmo:42050:1,2010-04-01T02:30:00Z,28.8425,-94.2433,2.0,311.0623718,13.48808734,-99999.0,'11111222,11111222,99999999' 
TABS,ioos:station:wmo:42050:1,2010-04-01T03:00:00Z,28.8425,-94.2433,2.0,319.346155,17.63645373,-99999.0,'11111222,11111222,99999999' 
TABS,ioos:station:wmo:42050:1,2010-04-01T03:30:00Z,28.8425,-94.2433,2.0,327.9922351,22.77193448,-99999.0,'11111222,11111222,99999999' 
TABS,ioos:station:wmo:42050:1,2010-04-01T04:00:00Z,28.8425,-94.2433,2.0,330.3818505,27.53825884,-99999.0,'11111222,11111222,99999999' 
TABS,ioos:station:wmo:42050:1,2010-04-01T04:30:00Z,28.8425,-94.2433,2.0,330.9768561,30.34006098,-99999.0,'11111222,11111222,99999999' 
TABS,ioos:station:wmo:42050:1,2010-04-01T05:00:00Z,28.8425,-94.2433,2.0,338.0515627,37.56257712,-99999.0,'11111222,11111222,99999999' 
TABS,ioos:station:wmo:42050:1,2010-04-01T05:30:00Z,28.8425,-94.2433,2.0,338.6307395,42.12618426,-99999.0,'11111222,11111222,99999999' 
TABS,ioos:station:wmo:42050:1,2010-04-01T06:00:00Z,28.8425,-94.2433,2.0,338.4306771,43.1410941,-99999.0,'11111222,11111222,99999999' 
TABS,ioos:station:wmo:42050:1,2010-04-01T06:30:00Z,28.8425,-94.2433,2.0,337.0757822,45.28679388,-99999.0,'11111222,11111222,99999999' 
TABS,ioos:station:wmo:42050:1,2010-04-01T07:00:00Z,28.8425,-94.2433,2.0,336.8301853,44.85822221,-99999.0,'11111222,11111222,99999999' 
TABS,ioos:station:wmo:42050:1,2010-04-01T07:30:00Z,28.8425,-94.2433,2.0,339.9088549,41.13312291,-99999.0,'11111222,11111222,99999999' 
TABS,ioos:station:wmo:42050:1,2010-04-01T08:00:00Z,28.8425,-94.2433,2.0,342.1092641,38.63844976,-99999.0,'11111222,11111222,99999999' 
TABS,ioos:station:wmo:42050:1,2010-04-01T08:30:00Z,28.8425,-94.2433,2.0,347.6299258,35.28929724,-99999.0,'11111222,11111222,99999999' 
TABS,ioos:station:wmo:42050:1,2010-04-01T09:00:00Z,28.8425,-94.2433,2.0,347.1151758,34.8885153,-99999.0,'11111222,11111222,99999999' 
TABS,ioos:station:wmo:42050:1,2010-04-01T09:30:00Z,28.8425,-94.2433,2.0,350.3814593,30.10321079,-99999.0,'11111222,11111222,99999999' 
TABS,ioos:station:wmo:42050:1,2010-04-01T10:00:00Z,28.8425,-94.2433,2.0,353.1546278,24.16225362,-99999.0,'11111222,11111222,99999999' 
TABS,ioos:station:wmo:42050:1,2010-04-01T10:30:00Z,28.8425,-94.2433,2.0,356.8843068,18.39719816,-99999.0,'11111222,11111222,99999999' 
TABS,ioos:station:wmo:42050:1,2010-04-01T11:00:00Z,28.8425,-94.2433,2.0,353.2531896,12.59724176,-99999.0,'11111222,11111222,99999999' 
TABS,ioos:station:wmo:42050:1,2010-04-01T11:30:00Z,28.8425,-94.2433,2.0,18.46597004,11.74470093,-99999.0,'11111222,11111222,99999999' 
TABS,ioos:station:wmo:42050:1,2010-04-01T12:00:00Z,28.8425,-94.2433,2.0,32.6509364,9.786521343,-99999.0,'11133222,11111222,99999999' 
TABS,ioos:station:wmo:42050:1,2010-04-01T12:30:00Z,28.8425,-94.2433,2.0,66.80146373,5.940303023,-99999.0,'11133222,11111222,99999999' 
TABS,ioos:station:wmo:42050:1,2010-04-01T13:00:00Z,28.8425,-94.2433,2.0,85.19275598,7.63686454,-99999.0,'11133222,11111222,99999999' 
TABS,ioos:station:wmo:42050:1,2010-04-01T13:30:00Z,28.8425,-94.2433,2.0,99.09700665,6.704326961,-99999.0,'11133222,11111222,99999999' 
TABS,ioos:station:wmo:42050:1,2010-04-01T14:00:00Z,28.8425,-94.2433,2.0,114.0171342,7.444521476,-99999.0,'11133222,11111222,99999999' 
TABS,ioos:station:wmo:42050:1,2010-04-01T14:30:00Z,28.8425,-94.2433,2.0,117.227337,7.737312195,-99999.0,'11133222,11111222,99999999' 
TABS,ioos:station:wmo:42050:1,2010-04-01T15:00:00Z,28.8425,-94.2433,2.0,107.6680882,8.270096735,-99999.0,'11133222,11111222,99999999' 
TABS,ioos:station:wmo:42050:1,2010-04-01T15:30:00Z,28.8425,-94.2433,2.0,136.9315621,8.391054761,-99999.0,'11133222,11111222,99999999' 
TABS,ioos:station:wmo:42050:1,2010-04-01T16:00:00Z,28.8425,-94.2433,2.0,119.1869196,8.407472866,-99999.0,'11133222,11111222,99999999' 
TABS,ioos:station:wmo:42050:1,2010-04-01T16:30:00Z,28.8425,-94.2433,2.0,124.3415582,7.072884843,-99999.0,'11133222,11111222,99999999' 
TABS,ioos:station:wmo:42050:1,2010-04-01T17:00:00Z,28.8425,-94.2433,2.0,164.5211876,2.697850997,-99999.0,'11133222,11111222,99999999' 
TABS,ioos:station:wmo:42050:1,2010-04-01T17:30:00Z,28.8425,-94.2433,2.0,209.7446013,5.643580424,-99999.0,'11133222,11111222,99999999' 
TABS,ioos:station:wmo:42050:1,2010-04-01T18:00:00Z,28.8425,-94.2433,2.0,193.958047,3.565276988,-99999.0,'11133222,11111222,99999999' 
TABS,ioos:station:wmo:42050:1,2010-04-01T18:30:00Z,28.8425,-94.2433,2.0,245.4203224,4.904406182,-99999.0,'11133222,11111222,99999999' 
TABS,ioos:station:wmo:42050:1,2010-04-01T19:00:00Z,28.8425,-94.2433,2.0,278.1458117,5.293401553,-99999.0,'11133222,11111222,99999999' 
TABS,ioos:station:wmo:42050:1,2010-04-01T19:30:00Z,28.8425,-94.2433,2.0,311.4663556,5.965182311,-99999.0,'11133222,11111222,99999999' 
TABS,ioos:station:wmo:42050:1,2010-04-01T20:00:00Z,28.8425,-94.2433,2.0,263.9205294,12.84221554,-99999.0,'11111222,11111222,99999999' 
TABS,ioos:station:wmo:42050:1,2010-04-01T20:30:00Z,28.8425,-94.2433,2.0,265.3471513,14.54793456,-99999.0,'11111222,11111222,99999999' 
TABS,ioos:station:wmo:42050:1,2010-04-01T21:00:00Z,28.8425,-94.2433,2.0,265.398519,13.46338739,-99999.0,'11111222,11111222,99999999' 
TABS,ioos:station:wmo:42050:1,2010-04-01T21:30:00Z,28.8425,-94.2433,2.0,258.5005792,15.45011327,-99999.0,'11111222,11111222,99999999' 
TABS,ioos:station:wmo:42050:1,2010-04-01T22:00:00Z,28.8425,-94.2433,2.0,253.6943227,18.80640582,-99999.0,'11111222,11111222,99999999' 
TABS,ioos:station:wmo:42050:1,2010-04-01T22:30:00Z,28.8425,-94.2433,2.0,250.5537278,21.68711369,-99999.0,'11111222,11111222,99999999' 
TABS,ioos:station:wmo:42050:1,2010-04-01T23:00:00Z,28.8425,-94.2433,2.0,250.2618781,24.34001849,-99999.0,'11111222,11111222,99999999' 
TABS,ioos:station:wmo:42050:1,2010-04-01T23:30:00Z,28.8425,-94.2433,2.0,252.0948547,26.314439,-99999.0,'11111222,11111222,99999999' 
TABS,ioos:station:wmo:42050:1,2010-04-02T00:00:00Z,28.8425,-94.2433,2.0,257.075136,30.00002833,-99999.0,'11111222,11111222,99999999' 
TABS,ioos:station:wmo:42050:1,2010-04-02T00:30:00Z,28.8425,-94.2433,2.0,251.80541,34.62092142,-99999.0,'11111222,11111222,99999999' 
TABS,ioos:station:wmo:42050:1,2010-04-02T01:00:00Z,28.8425,-94.2433,2.0,254.4224229,36.97822738,-99999.0,'11111222,11111222,99999999' 
TABS,ioos:station:wmo:42050:1,2010-04-02T01:30:00Z,28.8425,-94.2433,2.0,256.2111318,38.13908363,-99999.0,'11111222,11111222,99999999' 
TABS,ioos:station:wmo:42050:1,2010-04-02T02:00:00Z,28.8425,-94.2433,2.0,265.7764209,36.79991984,-99999.0,'11111222,11111222,99999999' 
TABS,ioos:station:wmo:42050:1,2010-04-02T02:30:00Z,28.8425,-94.2433,2.0,271.979391,39.09331656,-99999.0,'11111222,11111222,99999999' 
TABS,ioos:station:wmo:42050:1,2010-04-02T03:00:00Z,28.8425,-94.2433,2.0,273.8126372,41.2111878,-99999.0,'11111222,11111222,99999999' 
TABS,ioos:station:wmo:42050:1,2010-04-02T03:30:00Z,28.8425,-94.2433,2.0,272.9879631,38.18189361,-99999.0,'11111222,11111222,99999999' 
TABS,ioos:station:wmo:42050:1,2010-04-02T04:00:00Z,28.8425,-94.2433,2.0,283.2796312,44.0580163,-99999.0,'11111222,11111222,99999999' 
TABS,ioos:station:wmo:42050:1,2010-04-02T04:30:00Z,28.8425,-94.2433,2.0,291.7143052,36.48917648,-99999.0,'11111222,11111222,99999999' 
TABS,ioos:station:wmo:42050:1,2010-04-02T05:00:00Z,28.8425,-94.2433,2.0,297.8399675,37.19501311,-99999.0,'11111222,11111222,99999999' 
TABS,ioos:station:wmo:42050:1,2010-04-02T05:30:00Z,28.8425,-94.2433,2.0,305.3062133,36.49159492,-99999.0,'11111222,11111222,99999999' 
TABS,ioos:station:wmo:42050:1,2010-04-02T06:00:00Z,28.8425,-94.2433,2.0,307.7014724,35.84377212,-99999.0,'11111222,11111222,99999999' 
TABS,ioos:station:wmo:42050:1,2010-04-02T06:30:00Z,28.8425,-94.2433,2.0,310.0087307,40.14621526,-99999.0,'11111222,11111222,99999999' 
TABS,ioos:station:wmo:42050:1,2010-04-02T07:00:00Z,28.8425,-94.2433,2.0,317.477433,36.81102145,-99999.0,'11111222,11111222,99999999' 
TABS,ioos:station:wmo:42050:1,2010-04-02T07:30:00Z,28.8425,-94.2433,2.0,314.4456354,35.05999715,-99999.0,'11111222,11111222,99999999' 
TABS,ioos:station:wmo:42050:1,2010-04-02T08:00:00Z,28.8425,-94.2433,2.0,317.8740232,33.99094144,-99999.0,'11111222,11111222,99999999' 
TABS,ioos:station:wmo:42050:1,2010-04-02T08:30:00Z,28.8425,-94.2433,2.0,323.7247115,36.82798121,-99999.0,'11111222,11111222,99999999' 
TABS,ioos:station:wmo:42050:1,2010-04-02T09:00:00Z,28.8425,-94.2433,2.0,324.9177682,35.26715894,-99999.0,'11111222,11111222,99999999' 
TABS,ioos:station:wmo:42050:1,2010-04-02T09:30:00Z,28.8425,-94.2433,2.0,324.8309614,33.09057419,-99999.0,'11111222,11111222,99999999' 
TABS,ioos:station:wmo:42050:1,2010-04-02T10:00:00Z,28.8425,-94.2433,2.0,324.3296369,29.05036316,-99999.0,'11111222,11111222,99999999' 
TABS,ioos:station:wmo:42050:1,2010-04-02T10:30:00Z,28.8425,-94.2433,2.0,333.1136129,26.29210148,-99999.0,'11111222,11111222,99999999' 
TABS,ioos:station:wmo:42050:1,2010-04-02T11:00:00Z,28.8425,-94.2433,2.0,328.0029878,22.53343516,-99999.0,'11111222,11111222,99999999' 
TABS,ioos:station:wmo:42050:1,2010-04-02T11:30:00Z,28.8425,-94.2433,2.0,331.786222,22.37889184,-99999.0,'11111222,11111222,99999999' 
TABS,ioos:station:wmo:42050:1,2010-04-02T12:00:00Z,28.8425,-94.2433,2.0,333.5706363,17.02994128,-99999.0,'11111222,11111222,99999999' 
TABS,ioos:station:wmo:42050:1,2010-04-02T12:30:00Z,28.8425,-94.2433,2.0,355.3009187,12.57226312,-99999.0,'11111222,11111222,99999999' 
TABS,ioos:station:wmo:42050:1,2010-04-02T13:00:00Z,28.8425,-94.2433,2.0,19.86298856,11.80212269,-99999.0,'11111222,11111222,99999999' 
TABS,ioos:station:wmo:42050:1,2010-04-02T13:30:00Z,28.8425,-94.2433,2.0,15.13812464,8.577645365,-99999.0,'11133222,11111222,99999999' 
TABS,ioos:station:wmo:42050:1,2010-04-02T14:00:00Z,28.8425,-94.2433,2.0,36.62145232,7.376069414,-99999.0,'11133222,11111222,99999999' 
TABS,ioos:station:wmo:42050:1,2010-04-02T14:30:00Z,28.8425,-94.2433,2.0,45.57921939,20.98800133,-99999.0,'11111222,11111222,99999999' 
TABS,ioos:station:wmo:42050:1,2010-04-02T15:00:00Z,28.8425,-94.2433,2.0,56.53907808,22.19927927,-99999.0,'11111222,11111222,99999999' 
TABS,ioos:station:wmo:42050:1,2010-04-02T15:30:00Z,28.8425,-94.2433,2.0,79.56254906,15.45574327,-99999.0,'11111222,11111222,99999999' 
TABS,ioos:station:wmo:42050:1,2010-04-02T16:00:00Z,28.8425,-94.2433,2.0,67.17999433,14.31008735,-99999.0,'11111222,11111222,99999999' 
TABS,ioos:station:wmo:42050:1,2010-04-02T16:30:00Z,28.8425,-94.2433,2.0,103.7969318,11.61513237,-99999.0,'11111222,11111222,99999999' 
TABS,ioos:station:wmo:42050:1,2010-04-02T17:00:00Z,28.8425,-94.2433,2.0,90.98675752,9.871463924,-99999.0,'11133222,11111222,99999999' 
TABS,ioos:station:wmo:42050:1,2010-04-02T17:30:00Z,28.8425,-94.2433,2.0,95.75726598,9.769278377,-99999.0,'11133222,11111222,99999999' 
TABS,ioos:station:wmo:42050:1,2010-04-02T18:00:00Z,28.8425,-94.2433,2.0,122.7684225,8.277197593,-99999.0,'11133222,11111222,99999999' 
TABS,ioos:station:wmo:42050:1,2010-04-02T18:30:00Z,28.8425,-94.2433,2.0,83.88451073,2.252820454,-99999.0,'11133222,11111222,99999999' 
TABS,ioos:station:wmo:42050:1,2010-04-02T19:00:00Z,28.8425,-94.2433,2.0,26.6697535,2.450734584,-99999.0,'11133222,11111222,99999999' 
TABS,ioos:station:wmo:42050:1,2010-04-02T19:30:00Z,28.8425,-94.2433,2.0,33.0751327,5.167330065,-99999.0,'11133222,11111222,99999999' 
TABS,ioos:station:wmo:42050:1,2010-04-02T20:00:00Z,28.8425,-94.2433,2.0,50.19452199,1.562049935,-99999.0,'11133222,11111222,99999999' 
TABS,ioos:station:wmo:42050:1,2010-04-02T20:30:00Z,28.8425,-94.2433,2.0,289.4678507,5.791070713,-99999.0,'11133222,11111222,99999999' 
TABS,ioos:station:wmo:42050:1,2010-04-02T21:00:00Z,28.8425,-94.2433,2.0,343.8868299,2.810409223,-99999.0,'11133222,11111222,99999999' 
TABS,ioos:station:wmo:42050:1,2010-04-02T21:30:00Z,28.8425,-94.2433,2.0,248.7491233,10.2360002,-99999.0,'11111222,11111222,99999999' 
TABS,ioos:station:wmo:42050:1,2010-04-02T22:00:00Z,28.8425,-94.2433,2.0,256.0551148,9.087821521,-99999.0,'11133222,11111222,99999999' 
TABS,ioos:station:wmo:42050:1,2010-04-02T22:30:00Z,28.8425,-94.2433,2.0,236.3786545,11.50449043,-99999.0,'11111222,11111222,99999999' 
TABS,ioos:station:wmo:42050:1,2010-04-02T23:00:00Z,28.8425,-94.2433,2.0,245.640979,7.782814401,-99999.0,'11133222,11111222,99999999' 
TABS,ioos:station:wmo:42050:1,2010-04-02T23:30:00Z,28.8425,-94.2433,2.0,239.1190828,9.449582001,-99999.0,'11133222,11111222,99999999' 
TABS,ioos:station:wmo:42050:1,2010-04-03T00:00:00Z,28.8425,-94.2433,2.0,216.3430804,10.66445029,-99999.0,'11111222,11111222,99999999' 
TABS,ioos:station:wmo:42050:1,2010-04-03T00:30:00Z,28.8425,-94.2433,2.0,214.5954303,14.21319457,-99999.0,'11111222,11111222,99999999' 
TABS,ioos:station:wmo:42050:1,2010-04-03T01:00:00Z,28.8425,-94.2433,2.0,221.3719629,14.75152196,-99999.0,'11111222,11111222,99999999' 
TABS,ioos:station:wmo:42050:1,2010-04-03T01:30:00Z,28.8425,-94.2433,2.0,219.1569893,17.0876154,-99999.0,'11111222,11111222,99999999' 
TABS,ioos:station:wmo:42050:1,2010-04-03T02:00:00Z,28.8425,-94.2433,2.0,226.5863259,12.51351669,-99999.0,'11111222,11111222,99999999' 
TABS,ioos:station:wmo:42050:1,2010-04-03T02:30:00Z,28.8425,-94.2433,2.0,235.3234707,13.37580278,-99999.0,'11111222,11111222,99999999' 
TABS,ioos:station:wmo:42050:1,2010-04-03T03:00:00Z,28.8425,-94.2433,2.0,238.0797981,15.62226616,-99999.0,'11111222,11111222,99999999' 
TABS,ioos:station:wmo:42050:1,2010-04-03T03:30:00Z,28.8425,-94.2433,2.0,229.3640809,18.11911974,-99999.0,'11111222,11111222,99999999' 
TABS,ioos:station:wmo:42050:1,2010-04-03T04:00:00Z,28.8425,-94.2433,2.0,248.7622284,13.5824151,-99999.0,'11111222,11111222,99999999' 
TABS,ioos:station:wmo:42050:1,2010-04-03T04:30:00Z,28.8425,-94.2433,2.0,248.4970883,14.59585215,-99999.0,'11111222,11111222,99999999' 
TABS,ioos:station:wmo:42050:1,2010-04-03T05:00:00Z,28.8425,-94.2433,2.0,253.8008884,13.04800751,-99999.0,'11111222,11111222,99999999' 
TABS,ioos:station:wmo:42050:1,2010-04-03T05:30:00Z,28.8425,-94.2433,2.0,278.0732004,9.898085674,-99999.0,'11133222,11111222,99999999' 
TABS,ioos:station:wmo:42050:1,2010-04-03T06:00:00Z,28.8425,-94.2433,2.0,319.7565947,13.72979607,-99999.0,'11111222,11111222,99999999' 
TABS,ioos:station:wmo:42050:1,2010-04-03T06:30:00Z,28.8425,-94.2433,2.0,334.5319047,14.72049592,-99999.0,'11111222,11111222,99999999' 
TABS,ioos:station:wmo:42050:1,2010-04-03T07:00:00Z,28.8425,-94.2433,2.0,326.4593374,18.11656976,-99999.0,'11111222,11111222,99999999' 
TABS,ioos:station:wmo:42050:1,2010-04-03T07:30:00Z,28.8425,-94.2433,2.0,338.4361932,18.82781187,-99999.0,'11111222,11111222,99999999' 
TABS,ioos:station:wmo:42050:1,2010-04-03T08:00:00Z,28.8425,-94.2433,2.0,343.9830641,17.54095778,-99999.0,'11111222,11111222,99999999' 
TABS,ioos:station:wmo:42050:1,2010-04-03T08:30:00Z,28.8425,-94.2433,2.0,349.377483,22.72953365,-99999.0,'11111222,11111222,99999999' 
TABS,ioos:station:wmo:42050:1,2010-04-03T09:00:00Z,28.8425,-94.2433,2.0,344.8948524,22.48696734,-99999.0,'11111222,11111222,99999999' 
TABS,ioos:station:wmo:42050:1,2010-04-03T09:30:00Z,28.8425,-94.2433,2.0,351.8146954,23.38827484,-99999.0,'11111222,11111222,99999999' 
TABS,ioos:station:wmo:42050:1,2010-04-03T10:00:00Z,28.8425,-94.2433,2.0,351.906086,24.78692599,-99999.0,'11111222,11111222,99999999' 
TABS,ioos:station:wmo:42050:1,2010-04-03T10:30:00Z,28.8425,-94.2433,2.0,350.3738339,22.9633447,-99999.0,'11111222,11111222,99999999' 
TABS,ioos:station:wmo:42050:1,2010-04-03T11:00:00Z,28.8425,-94.2433,2.0,354.0307159,22.01940281,-99999.0,'11111222,11111222,99999999' 
TABS,ioos:station:wmo:42050:1,2010-04-03T11:30:00Z,28.8425,-94.2433,2.0,352.7914932,19.52432841,-99999.0,'11111222,11111222,99999999' 
TABS,ioos:station:wmo:42050:1,2010-04-03T12:00:00Z,28.8425,-94.2433,2.0,359.0563808,18.212471,-99999.0,'11111222,11144222,99999999' 
TABS,ioos:station:wmo:42050:1,2010-04-03T12:30:00Z,28.8425,-94.2433,2.0,2.390474089,16.54439482,-99999.0,'11111222,11111222,99999999' 
TABS,ioos:station:wmo:42050:1,2010-04-03T13:00:00Z,28.8425,-94.2433,2.0,4.404577241,15.49576071,-99999.0,'11111222,11111222,99999999' 
TABS,ioos:station:wmo:42050:1,2010-04-03T13:30:00Z,28.8425,-94.2433,2.0,4.052532069,11.03759485,-99999.0,'11111222,11111222,99999999' 
TABS,ioos:station:wmo:42050:1,2010-04-03T14:00:00Z,28.8425,-94.2433,2.0,1.820207373,10.70540051,-99999.0,'11111222,11111222,99999999' 
TABS,ioos:station:wmo:42050:1,2010-04-03T14:30:00Z,28.8425,-94.2433,2.0,16.25271081,8.96840008,-99999.0,'11133222,11111222,99999999' 
TABS,ioos:station:wmo:42050:1,2010-04-03T15:00:00Z,28.8425,-94.2433,2.0,20.06504025,7.78235183,-99999.0,'11133222,11111222,99999999' 
TABS,ioos:station:wmo:42050:1,2010-04-03T15:30:00Z,28.8425,-94.2433,2.0,0.828808719,4.840506172,-99999.0,'11133222,11111222,99999999' 
TABS,ioos:station:wmo:42050:1,2010-04-03T16:00:00Z,28.8425,-94.2433,2.0,355.6552133,4.091760013,-99999.0,'11133222,11111222,99999999' 
TABS,ioos:station:wmo:42050:1,2010-04-03T16:30:00Z,28.8425,-94.2433,2.0,5.208080059,3.85591753,-99999.0,'11133222,11111222,99999999' 
TABS,ioos:station:wmo:42050:1,2010-04-03T17:00:00Z,28.8425,-94.2433,2.0,341.2701863,4.297592349,-99999.0,'11133222,11111222,99999999' 
TABS,ioos:station:wmo:42050:1,2010-04-03T17:30:00Z,28.8425,-94.2433,2.0,325.1249637,3.217949658,-99999.0,'11133222,11111222,99999999' 
TABS,ioos:station:wmo:42050:1,2010-04-03T18:00:00Z,28.8425,-94.2433,2.0,317.8716723,4.517012287,-99999.0,'11133222,11111222,99999999' 
TABS,ioos:station:wmo:42050:1,2010-04-03T18:30:00Z,28.8425,-94.2433,2.0,320.5241916,7.125370166,-99999.0,'11133222,11111222,99999999' 
TABS,ioos:station:wmo:42050:1,2010-04-03T19:00:00Z,28.8425,-94.2433,2.0,304.311757,6.138118604,-99999.0,'11133222,11111222,99999999' 
TABS,ioos:station:wmo:42050:1,2010-04-03T19:30:00Z,28.8425,-94.2433,2.0,304.1395265,7.430437403,-99999.0,'11133222,11111222,99999999' 
TABS,ioos:station:wmo:42050:1,2010-04-03T20:00:00Z,28.8425,-94.2433,2.0,295.4043377,10.37301306,-99999.0,'11111222,11111222,99999999' 
TABS,ioos:station:wmo:42050:1,2010-04-03T20:30:00Z,28.8425,-94.2433,2.0,292.3805036,9.192388155,-99999.0,'11133222,11111222,99999999' 
TABS,ioos:station:wmo:42050:1,2010-04-03T21:00:00Z,28.8425,-94.2433,2.0,302.9629229,13.3249728,-99999.0,'11111222,11111222,99999999' 
TABS,ioos:station:wmo:42050:1,2010-04-03T21:30:00Z,28.8425,-94.2433,2.0,296.56541,13.5952933,-99999.0,'11111222,11111222,99999999' 
TABS,ioos:station:wmo:42050:1,2010-04-03T22:00:00Z,28.8425,-94.2433,2.0,297.5742472,16.76416416,-99999.0,'11111222,11111222,99999999' 
TABS,ioos:station:wmo:42050:1,2010-04-03T22:30:00Z,28.8425,-94.2433,2.0,301.0214325,15.42630546,-99999.0,'11111222,11111222,99999999' 
TABS,ioos:station:wmo:42050:1,2010-04-03T23:00:00Z,28.8425,-94.2433,2.0,302.7658464,14.78191124,-99999.0,'11111222,11111222,99999999' 
TABS,ioos:station:wmo:42050:1,2010-04-03T23:30:00Z,28.8425,-94.2433,2.0,301.5313701,14.72387517,-99999.0,'11111222,11111222,99999999' 
TABS,ioos:station:wmo:42050:1,2010-04-04T00:00:00Z,28.8425,-94.2433,2.0,295.910007,18.76631024,-99999.0,'11111222,11111222,99999999' 
TABS,ioos:station:wmo:42050:1,2010-04-04T00:30:00Z,28.8425,-94.2433,2.0,298.7248562,14.83566648,-99999.0,'11111222,11111222,99999999' 
TABS,ioos:station:wmo:42050:1,2010-04-04T01:00:00Z,28.8425,-94.2433,2.0,297.9622216,17.06179651,-99999.0,'11111222,11111222,99999999' 
TABS,ioos:station:wmo:42050:1,2010-04-04T01:30:00Z,28.8425,-94.2433,2.0,309.7976466,17.77920133,-99999.0,'11111222,11111222,99999999' 
TABS,ioos:station:wmo:42050:1,2010-04-04T02:00:00Z,28.8425,-94.2433,2.0,315.2629371,18.51225,-99999.0,'11111222,11111222,99999999' 
TABS,ioos:station:wmo:42050:1,2010-04-04T02:30:00Z,28.8425,-94.2433,2.0,311.3040709,18.75613233,-99999.0,'11111222,11111222,99999999' 
TABS,ioos:station:wmo:42050:1,2010-04-04T03:00:00Z,28.8425,-94.2433,2.0,313.9623729,16.00445251,-99999.0,'11111222,11111222,99999999' 
TABS,ioos:station:wmo:42050:1,2010-04-04T03:30:00Z,28.8425,-94.2433,2.0,319.7756457,20.13049676,-99999.0,'11111222,11111222,99999999' 
TABS,ioos:station:wmo:42050:1,2010-04-04T04:00:00Z,28.8425,-94.2433,2.0,325.5876122,21.55181663,-99999.0,'11111222,11111222,99999999' 
TABS,ioos:station:wmo:42050:1,2010-04-04T04:30:00Z,28.8425,-94.2433,2.0,325.2465369,22.26118146,-99999.0,'11111222,11111222,99999999' 
TABS,ioos:station:wmo:42050:1,2010-04-04T05:00:00Z,28.8425,-94.2433,2.0,328.3615807,22.85720237,-99999.0,'11111222,11111222,99999999' 
TABS,ioos:station:wmo:42050:1,2010-04-04T05:30:00Z,28.8425,-94.2433,2.0,333.5040863,26.04573861,-99999.0,'11111222,11111222,99999999' 
TABS,ioos:station:wmo:42050:1,2010-04-04T06:00:00Z,28.8425,-94.2433,2.0,337.7530751,26.25440154,-99999.0,'11111222,11111222,99999999' 
TABS,ioos:station:wmo:42050:1,2010-04-04T06:30:00Z,28.8425,-94.2433,2.0,340.925871,28.33577244,-99999.0,'11111222,11111222,99999999' 
TABS,ioos:station:wmo:42050:1,2010-04-04T07:00:00Z,28.8425,-94.2433,2.0,344.1132363,26.95977188,-99999.0,'11111222,11111222,99999999' 
TABS,ioos:station:wmo:42050:1,2010-04-04T07:30:00Z,28.8425,-94.2433,2.0,348.4510595,29.11957761,-99999.0,'11111222,11111222,99999999' 
TABS,ioos:station:wmo:42050:1,2010-04-04T08:00:00Z,28.8425,-94.2433,2.0,352.6174743,31.98516062,-99999.0,'11111222,11111222,99999999' 
TABS,ioos:station:wmo:42050:1,2010-04-04T08:30:00Z,28.8425,-94.2433,2.0,355.9702493,33.01162371,-99999.0,'11111222,11111222,99999999' 
TABS,ioos:station:wmo:42050:1,2010-04-04T09:00:00Z,28.8425,-94.2433,2.0,357.342616,34.50711376,-99999.0,'11111222,11111222,99999999' 
TABS,ioos:station:wmo:42050:1,2010-04-04T09:30:00Z,28.8425,-94.2433,2.0,2.649068491,34.83722291,-99999.0,'11111222,11111222,99999999' 
TABS,ioos:station:wmo:42050:1,2010-04-04T10:00:00Z,28.8425,-94.2433,2.0,6.022132027,34.79198902,-99999.0,'11111222,11111222,99999999' 
TABS,ioos:station:wmo:42050:1,2010-04-04T10:30:00Z,28.8425,-94.2433,2.0,8.406039705,33.79302443,-99999.0,'11111222,11111222,99999999' 
TABS,ioos:station:wmo:42050:1,2010-04-04T11:00:00Z,28.8425,-94.2433,2.0,11.61708276,35.50733586,-99999.0,'11111222,11111222,99999999' 
TABS,ioos:station:wmo:42050:1,2010-04-04T11:30:00Z,28.8425,-94.2433,2.0,16.9170966,31.51367005,-99999.0,'11111222,11111222,99999999' 
TABS,ioos:station:wmo:42050:1,2010-04-04T12:00:00Z,28.8425,-94.2433,2.0,24.12929123,29.67260184,-99999.0,'11111222,11111222,99999999' 
TABS,ioos:station:wmo:42050:1,2010-04-04T12:30:00Z,28.8425,-94.2433,2.0,23.82702068,28.73945372,-99999.0,'11111222,11111222,99999999' 
TABS,ioos:station:wmo:42050:1,2010-04-04T13:00:00Z,28.8425,-94.2433,2.0,29.46103124,26.0252877,-99999.0,'11111222,11111222,99999999' 
TABS,ioos:station:wmo:42050:1,2010-04-04T13:30:00Z,28.8425,-94.2433,2.0,39.1448187,28.9728321,-99999.0,'11111222,11111222,99999999' 
TABS,ioos:station:wmo:42050:1,2010-04-04T14:00:00Z,28.8425,-94.2433,2.0,43.38002182,25.26088082,-99999.0,'11111222,11111222,99999999' 
TABS,ioos:station:wmo:42050:1,2010-04-04T14:30:00Z,28.8425,-94.2433,2.0,47.30662279,24.42204127,-99999.0,'11111222,11111222,99999999' 
TABS,ioos:station:wmo:42050:1,2010-04-04T15:00:00Z,28.8425,-94.2433,2.0,54.23744966,23.39036768,-99999.0,'11111222,11111222,99999999' 
TABS,ioos:station:wmo:42050:1,2010-04-04T15:30:00Z,28.8425,-94.2433,2.0,63.72556566,22.92893587,-99999.0,'11111222,11111222,99999999' 
TABS,ioos:station:wmo:42050:1,2010-04-04T16:00:00Z,28.8425,-94.2433,2.0,65.23125591,25.25314436,-99999.0,'11111222,11111222,99999999' 